Weather History for Clinton, IA

Change the Weather History Date:

Thursday, July 3, 2014

  Actual Average Record
Temperature  
Mean Temperature 66 °F -  
Max Temperature 73 °F 84 °F 95 °F (2012)
Min Temperature 59 °F 63 °F 47 °F (1968)
Cooling Degree Days 1    
Growing Degree Days 16 (Base 50)    
Moisture  
Dew Point 52 °F    
Average Humidity 55    
Maximum Humidity 82    
Minimum Humidity 41    
Precipitation  
Precipitation 0.00 in - - ()
Sea Level Pressure  
Sea Level Pressure 30.21 in    
Wind  
Wind Speed 7 mph (North)    
Max Wind Speed 13 mph    
Max Gust Speed 16 mph    
Visibility 10 miles    
Events      
Averages and records for this station are not official NWS values.
T = Trace of Precipitation, MM = Missing Value Source: NWS Daily Summary

Daily Weather History Graph

Daily Weather History Graph

Search for Another Location

Airport:

Trip Planner

Search our weather history database for the weather conditions in past years. The results will help you decide how hot, cold, wet, or windy it might be!

Date:

Astronomy

Jul. 03, 2014 Rise Set
Actual Time 5:31 AM CDT 8:39 PM CDT
Civil Twilight 4:57 AM CDT 9:13 PM CDT
Nautical Twilight 4:13 AM CDT 9:57 PM CDT
Astronomical Twilight 3:21 AM CDT 10:49 PM CDT
Moon 11:36 AM CDT (7/3) 11:55 PM CDT (7/3)
Length of Visible Light 16h 16m
Length of Day
15h 08m
Waxing Crescent, 33% of the Moon is Illuminated
Jul 3
Waxing Crescent
Jul 5
First Quarter
Jul 12
Full
Jul 18
Last Quarter
Jul 26
New

Hourly Weather History & Observations

Time (CDT) Temp. Dew Point Humidity Pressure Visibility Wind Dir Wind Speed Gust Speed Precip Events Conditions
11:15 AM 69.8 °F 55.4 °F 60% 30.19 in 10.0 mi NW 5.8 mph - N/A   Partly Cloudy
11:55 AM 69.8 °F 48.2 °F 46% 30.19 in 10.0 mi NW 6.9 mph - N/A   Mostly Cloudy
12:15 PM 71.6 °F 50.0 °F 46% 30.19 in 10.0 mi WNW 8.1 mph - N/A   Scattered Clouds
12:35 PM 71.6 °F 50.0 °F 46% 30.20 in 10.0 mi NNW 6.9 mph - N/A   Scattered Clouds
12:55 PM 71.6 °F 53.6 °F 53% 30.20 in 10.0 mi North 6.9 mph - N/A   Scattered Clouds
1:15 PM 73.4 °F 51.8 °F 47% 30.20 in 10.0 mi NW 8.1 mph - N/A   Partly Cloudy
1:35 PM 73.4 °F 51.8 °F 47% 30.20 in 10.0 mi NNE 9.2 mph - N/A   Partly Cloudy
1:55 PM 73.4 °F 51.8 °F 47% 30.20 in 10.0 mi North 9.2 mph - N/A   Clear
2:15 PM 73.4 °F 51.8 °F 47% 30.20 in 10.0 mi North 11.5 mph - N/A   Mostly Cloudy
2:35 PM 73.4 °F 50.0 °F 44% 30.20 in 10.0 mi NNW 6.9 mph 16.1 mph N/A   Partly Cloudy
2:55 PM 73.4 °F 48.2 °F 41% 30.20 in 10.0 mi NNE 6.9 mph - N/A   Mostly Cloudy
3:15 PM 73.4 °F 50.0 °F 44% 30.20 in 10.0 mi NNW 8.1 mph - N/A   Mostly Cloudy
3:35 PM 73.4 °F 50.0 °F 44% 30.19 in 10.0 mi North 11.5 mph - N/A   Clear
3:55 PM 73.4 °F 50.0 °F 44% 30.20 in 10.0 mi NNE 9.2 mph - N/A   Clear
4:15 PM 73.4 °F 48.2 °F 41% 30.20 in 10.0 mi North 9.2 mph - N/A   Clear
4:35 PM 73.4 °F 48.2 °F 41% 30.20 in 10.0 mi NNW 11.5 mph - N/A   Scattered Clouds
4:55 PM 73.4 °F 50.0 °F 44% 30.20 in 10.0 mi North 8.1 mph - N/A   Scattered Clouds
5:15 PM 73.4 °F 48.2 °F 41% 30.20 in 10.0 mi North 6.9 mph - N/A   Partly Cloudy
5:35 PM 73.4 °F 48.2 °F 41% 30.19 in 10.0 mi NNE 12.7 mph - N/A   Clear
5:55 PM 73.4 °F 50.0 °F 44% 30.19 in 10.0 mi NNE 9.2 mph - N/A   Partly Cloudy
6:15 PM 73.4 °F 48.2 °F 41% 30.20 in 10.0 mi North 6.9 mph - N/A   Partly Cloudy
6:35 PM 73.4 °F 48.2 °F 41% 30.20 in 10.0 mi North 4.6 mph - N/A   Clear
6:55 PM 71.6 °F 48.2 °F 43% 30.21 in 10.0 mi North 8.1 mph - N/A   Clear
7:15 PM 71.6 °F 51.8 °F 50% 30.21 in 10.0 mi North 3.5 mph - N/A   Clear
7:35 PM 69.8 °F 51.8 °F 53% 30.21 in 10.0 mi NNW 3.5 mph - N/A   Clear
7:55 PM 69.8 °F 55.4 °F 60% 30.21 in 10.0 mi North 4.6 mph - N/A   Clear
8:15 PM 66.2 °F 55.4 °F 68% 30.21 in 10.0 mi North 4.6 mph - N/A   Clear
8:35 PM 64.4 °F 57.2 °F 77% 30.21 in 10.0 mi Calm Calm - N/A   Clear
8:55 PM 64.4 °F 55.4 °F 73% 30.22 in 10.0 mi Calm Calm - N/A   Clear
9:15 PM 64.4 °F 55.4 °F 73% 30.22 in 10.0 mi Calm Calm - N/A   Partly Cloudy
9:35 PM 62.6 °F 55.4 °F 77% 30.22 in 10.0 mi Calm Calm - N/A   Partly Cloudy
9:55 PM 62.6 °F 55.4 °F 77% 30.23 in 10.0 mi Calm Calm - N/A   Clear
10:15 PM 60.8 °F 55.4 °F 82% 30.23 in 10.0 mi NNE 3.5 mph - N/A   Clear
10:35 PM 59.0 °F 53.6 °F 82% 30.23 in 10.0 mi NE 3.5 mph - N/A   Clear
10:55 PM 60.8 °F 53.6 °F 77% 30.23 in 10.0 mi Calm Calm - N/A   Clear
11:15 PM 60.8 °F 51.8 °F 72% 30.24 in 10.0 mi Calm Calm - N/A   Clear
11:35 PM 60.8 °F 50.0 °F 68% 30.24 in 10.0 mi North - - N/A   Clear
11:55 PM 59.0 °F 53.6 °F 82% 30.24 in 10.0 mi North - - N/A   Clear